User: anonymous   Login
Location: Unspecified
(0.0000°N, 0.0000°E)
Time: 22:22:00
(UTC+00:00)
Language:

STARLINK-31880 - Orbit

View from above orbital plane
View from above orbital plane
View from above satellite
View from above satellite

Ground track
Ground track

The orbit is defined by the following mean orbital elements,

1 59661U          26145.51088142 +.00000000 +00000-0 +10404-3 0 00009
2 59661  42.9992 324.3513 0001321 268.5445  91.5255 15.27583327    06
Epoch (UTC): 25 May 2026 12:15:40
Eccentricity: 0.0001321
inclination: 42.9992°
perigee height: 482 km
apogee height: 484 km
right ascension of ascending node: 324.3513°
argument of perigee: 268.5445°
revolutions per day: 15.27583327
mean anomaly at epoch: 91.5255°

The dashed part of the orbit path shows where the satellite is in the earth's shadow,  

DLR